IV3CVE-H1 Weather Reports


Display with metric or nautical units.
time (UTC)temp
F
wind
direction
speed
MPH
gust
MPH
rain 1hr
in
rain 24hr
in
rain mn
in
humidity
%
barometer
mb
20260504173537 70 150 3.0 8.0 0.00 0.00 0.00 57 1013.3
20260504172517 70 154 2.0 7.0 0.00 0.00 0.00 58 1013.3
20260504171557 70 159 4.0 9.0 0.00 0.00 0.00 62 1013.3
20260504170516 71 150 4.0 7.0 0.00 0.00 0.00 62 1013.3
20260504150537 75 143 3.0 8.0 0.00 0.00 0.00 56 1013.6
20260504140516 75 133 2.0 9.0 0.00 0.00 0.00 52 1013.9
20260504130516 78 126 5.0 11.0 0.00 0.00 0.00 49 1014.3
20260504110515 77 77 5.0 9.0 0.00 0.00 0.00 41 1015.0
20260504100516 76 114 2.0 6.0 0.00 0.00 0.00 40 1015.6
20260504081516 71 70 1.0 5.0 0.00 0.00 0.00 48 1015.8
20260504080536 70 83 1.0 4.0 0.00 0.00 0.00 50 1015.7
20260504050516 53 26 2.0 5.0 0.00 0.00 0.00 87 1014.9
20260504045515 51 25 2.0 4.0 0.00 0.00 0.00 87 1014.8
20260504044515 51 25 2.0 5.0 0.00 0.00 0.00 88 1014.8
20260504043517 50 25 3.0 5.0 0.00 0.00 0.00 88 1014.7
20260504042517 50 23 4.0 6.0 0.00 0.00 0.00 88 1014.7
20260504041537 50 30 2.0 6.0 0.00 0.00 0.00 88 1014.6
20260504040517 50 24 4.0 6.0 0.00 0.00 0.00 88 1014.6
20260504035516 50 25 4.0 5.0 0.00 0.00 0.00 87 1014.7
20260504034536 50 21 4.0 5.0 0.00 0.00 0.00 88 1014.7
20260504033516 50 21 3.0 5.0 0.00 0.00 0.00 88 1014.7
20260504032516 50 22 2.0 5.0 0.00 0.00 0.00 88 1014.7
20260504031536 50 22 2.0 6.0 0.00 0.00 0.00 88 1014.7
20260504030516 50 36 3.0 5.0 0.00 0.00 0.00 88 1014.7
20260504025557 50 32 2.0 5.0 0.00 0.00 0.00 88 1014.8
20260504024516 50 30 2.0 5.0 0.00 0.00 0.00 88 1014.8
20260504023516 50 28 4.0 5.0 0.00 0.00 0.00 87 1014.9
20260504022516 50 29 2.0 5.0 0.00 0.00 0.00 87 1014.9
20260504021516 50 30 2.0 4.0 0.00 0.00 0.00 86 1014.9
20260504020515 51 30 1.0 3.0 0.00 0.00 0.00 86 1014.9
20260504015515 51 30 2.0 3.0 0.00 0.00 0.00 86 1014.9
20260504014517 51 30 2.0 3.0 0.00 0.00 0.00 85 1015.0
20260504013517 52 30 1.0 3.0 0.00 0.00 0.00 84 1015.0
20260504012517 52 30 2.0 3.0 0.00 0.00 0.00 84 1015.0
20260504011536 52 30 1.0 3.0 0.00 0.00 0.00 84 1015.0
20260504010516 52 30 1.0 2.0 0.00 0.00 0.00 83 1015.0
20260504005516 53 30 1.0 2.0 0.00 0.00 0.00 84 1015.0
20260504004516 53 30 1.0 2.0 0.00 0.00 0.00 83 1015.0
20260504003515 53 30 1.0 2.0 0.00 0.00 0.00 83 1015.1
20260504002515 53 30 1.0 3.0 0.00 0.00 0.00 82 1015.1
20260504001515 53 32 1.0 4.0 0.00 0.00 0.00 82 1015.1
20260504000517 54 29 1.0 4.0 0.00 0.00 0.00 81 1015.0
20260503235517 54 25 3.0 5.0 0.00 0.00 0.00 81 1015.1
20260503234517 54 32 2.0 5.0 0.00 0.00 0.00 80 1015.1
20260503233516 54 41 1.0 4.0 0.00 0.00 0.00 81 1015.1
20260503232517 54 42 2.0 4.0 0.00 0.00 0.00 81 1015.1
20260503231516 53 68 1.0 3.0 0.00 0.00 0.00 81 1015.2
20260503230516 54 68 1.0 2.0 0.00 0.00 0.00 80 1015.2
20260503225517 54 69 1.0 4.0 0.00 0.00 0.00 81 1015.2
20260503224517 53 91 1.0 3.0 0.00 0.00 0.00 81 1015.2
20260503223516 53 116 2.0 3.0 0.00 0.00 0.00 82 1015.3
20260503222556 53 147 1.0 2.0 0.00 0.00 0.00 82 1015.3
20260503221516 53 146 1.0 2.0 0.00 0.00 0.00 81 1015.1
20260503220515 54 148 1.0 1.0 0.00 0.00 0.00 80 1015.0
20260503215515 54 148 0.0 1.0 0.00 0.00 0.00 79 1015.0
20260503214516 55 147 0.0 1.0 0.00 0.00 0.00 79 1015.0
20260503213515 55 0.0 1.0 0.00 0.00 0.00 78 1015.0
20260503212517 55 147 0.0 1.0 0.00 0.00 0.00 79 1014.9
20260503211517 56 147 1.0 2.0 0.00 0.00 0.00 79 1014.9
20260503210517 56 154 1.0 2.0 0.00 0.00 0.00 78 1014.8
20260503205516 56 206 1.0 2.0 0.00 0.00 0.00 77 1014.8
20260503204516 56 208 1.0 2.0 0.00 0.00 0.00 75 1014.9
20260503203516 57 207 0.0 1.0 0.00 0.00 0.00 75 1014.9
20260503202516 57 0.0 1.0 0.00 0.00 0.00 74 1015.0
20260503201515 57 207 0.0 2.0 0.00 0.00 0.00 72 1015.0
20260503200536 58 208 1.0 2.0 0.00 0.00 0.00 73 1014.9
20260503195515 58 208 0.0 2.0 0.00 0.00 0.00 70 1014.9
20260503194538 59 207 0.0 1.0 0.00 0.00 0.00 68 1014.9
20260503193517 59 208 0.0 1.0 0.00 0.00 0.00 66 1014.8
20260503192517 60 208 1.0 2.0 0.00 0.00 0.00 64 1014.7
20260503191516 60 207 1.0 2.0 0.00 0.00 0.00 62 1014.8
20260503190536 62 207 1.0 2.0 0.00 0.00 0.00 63 1014.7
20260503185537 63 174 2.0 3.0 0.00 0.00 0.00 60 1014.7
20260503184517 64 110 0.0 2.0 0.00 0.00 0.00 56 1014.5
20260503183517 65 110 1.0 2.0 0.00 0.00 0.00 54 1014.4
20260503182516 66 110 1.0 2.0 0.00 0.00 0.00 53 1014.3
20260503181516 67 110 1.0 3.0 0.00 0.00 0.00 51 1014.3
20260503180516 68 111 2.0 4.0 0.00 0.00 0.00 50 1014.2
20260503175516 69 121 2.0 4.0 0.00 0.00 0.00 48 1014.3
20260503174515 70 128 3.0 6.0 0.00 0.00 0.00 46 1014.3